Location: Geelbroek
(52.9503°N, 6.5712°E)
Time: 15:29:45
(UTC+00:00)

Cosmos 2233 Rocket - Pass Details

Date: 15 May 2026
Orbit: 952 x 990 km, 82.9° (Epoch: 10 June)

Event Time Altitude Azimuth Distance (km) Brightness Sun altitude
Rises 20:07:25 0° 185° (S) 3,648 6.6 -5.8°
Reaches altitude 10° 20:09:55 10° 185° (S) 2,700 6.0 -6.1°
Maximum altitude 20:16:06 84° 100° (E) 972 4.0 -6.7°
Drops below altitude 10° 20:22:17 10° 12° (NNE) 2,697 6.8 -7.4°
Sets 20:24:47 0° 12° (NNE) 3,644 7.5 -7.7°
